| time (UTC) | temp C | wind direction | speed KPH | gust KPH | rain 1hr cm | rain 24hr cm | rain mn cm | humidity % | barometer mb |
| 20260507023239 | 6 | 343 | 0.0 | 0.0 | 0.00 | 0.76 | 0.64 | 83 | 1013.6 |
| 20260507022739 | 6 | 343 | 0.0 | 0.0 | 0.00 | 0.81 | 0.64 | 82 | 1013.6 |
| 20260507022236 | 6 | 343 | 0.0 | 0.0 | 0.00 | 0.86 | 0.64 | 81 | 1013.6 |
| 20260507021733 | 7 | 343 | 0.0 | 0.0 | 0.00 | 0.89 | 0.64 | 79 | 1013.6 |
| 20260507021235 | 7 | 343 | 0.0 | 0.0 | 0.00 | 0.89 | 0.64 | 79 | 1013.5 |
| 20260507020733 | 7 | 343 | 0.0 | 0.0 | 0.00 | 0.91 | 0.64 | 79 | 1013.4 |
| 20260507020501 | 7 | 343 | 0.0 | 0.0 | 0.00 | 0.91 | 0.64 | 77 | 1013.3 |
| 20260507020000 | 7 | 343 | 0.0 | 0.0 | 0.00 | 0.91 | 0.64 | 77 | 1013.2 |
| 20260507015223 | 7 | 343 | 0.0 | 0.0 | 0.00 | 0.91 | 0.64 | 76 | 1013.1 |
| 20260507014958 | 8 | 343 | 0.0 | 0.0 | 0.00 | 0.94 | 0.64 | 73 | 1013.2 |
| 20260507014721 | 8 | 343 | 0.0 | 0.0 | 0.00 | 0.94 | 0.64 | 74 | 1013.2 |
| 20260507013719 | 8 | 343 | 0.0 | 0.0 | 0.00 | 0.97 | 0.64 | 73 | 1013.2 |
| 20260507013222 | 8 | 343 | 0.0 | 0.0 | 0.00 | 0.99 | 0.64 | 71 | 1013.1 |
| 20260507013218 | 8 | 343 | 0.0 | 0.0 | 0.00 | 0.99 | 0.64 | 72 | 1013.1 |
| 20260507012212 | 9 | 343 | 0.0 | 1.6 | 0.00 | 1.02 | 0.64 | 70 | 1013.1 |
| 20260507011711 | 9 | 343 | 0.0 | 3.2 | 0.00 | 1.07 | 0.64 | 70 | 1013.1 |
| 20260507011213 | 10 | 343 | 0.0 | 4.8 | 0.00 | 1.14 | 0.64 | 71 | 1013.1 |
| 20260507011207 | 10 | 343 | 0.0 | 3.2 | 0.00 | 1.12 | 0.64 | 71 | 1013.1 |
| 20260507010209 | 10 | 343 | 0.0 | 4.8 | 0.00 | 1.17 | 0.64 | 70 | 1013.0 |
| 20260507005706 | 10 | 343 | 1.6 | 3.2 | 0.00 | 1.19 | 0.64 | 69 | 1013.0 |
| 20260507005201 | 10 | 342 | 0.0 | 3.2 | 0.00 | 1.24 | 0.64 | 70 | 1012.9 |
| 20260507004701 | 10 | 343 | 0.0 | 3.2 | 0.00 | 1.30 | 0.64 | 68 | 1012.8 |
| 20260507004202 | 10 | 343 | 0.0 | 3.2 | 0.00 | 1.35 | 0.64 | 68 | 1012.7 |
| 20260507003701 | 11 | 343 | 0.0 | 4.8 | 0.00 | 1.37 | 0.64 | 67 | 1012.6 |
| 20260507003157 | 11 | 344 | 1.6 | 4.8 | 0.00 | 1.40 | 0.64 | 68 | 1012.6 |
| 20260507002658 | 11 | 342 | 1.6 | 4.8 | 0.00 | 1.42 | 0.64 | 67 | 1012.5 |
| 20260507002151 | 11 | 344 | 3.2 | 8.0 | 0.00 | 1.45 | 0.64 | 66 | 1012.5 |
| 20260507001921 | 11 | 344 | 3.2 | 8.0 | 0.00 | 1.45 | 0.64 | 64 | 1012.4 |
| 20260507001151 | 11 | 323 | 3.2 | 11.3 | 0.00 | 1.50 | 0.64 | 67 | 1012.4 |
| 20260507000652 | 11 | 321 | 3.2 | 11.3 | 0.00 | 1.50 | 0.64 | 66 | 1012.4 |
| 20260507000151 | 11 | 321 | 3.2 | 9.7 | 0.00 | 1.52 | 0.64 | 68 | 1012.4 |
| 20260506235653 | 11 | 329 | 1.6 | 9.7 | 0.00 | 1.55 | 0.64 | 67 | 1012.3 |
| 20260506235153 | 11 | 304 | 3.2 | 8.0 | 0.00 | 1.60 | 0.64 | 68 | 1012.1 |
| 20260506235148 | 11 | 298 | 3.2 | 9.7 | 0.00 | 1.57 | 0.64 | 68 | 1012.2 |
| 20260506234146 | 11 | 327 | 3.2 | 8.0 | 0.00 | 1.60 | 0.64 | 67 | 1012.2 |
| 20260506233645 | 11 | 312 | 3.2 | 9.7 | 0.00 | 1.63 | 0.64 | 67 | 1012.3 |
| 20260506233419 | 11 | 281 | 3.2 | 9.7 | 0.00 | 1.63 | 0.64 | 67 | 1012.3 |
| 20260506232647 | 11 | 308 | 4.8 | 9.7 | 0.00 | 1.63 | 0.64 | 65 | 1012.3 |
| 20260506232140 | 11 | 273 | 3.2 | 9.7 | 0.00 | 1.65 | 0.64 | 63 | 1012.2 |
| 20260506231639 | 12 | 355 | 3.2 | 9.7 | 0.00 | 1.68 | 0.64 | 61 | 1012.3 |
| 20260506231140 | 12 | 317 | 4.8 | 12.9 | 0.00 | 1.70 | 0.64 | 60 | 1012.3 |
| 20260506230640 | 12 | 280 | 4.8 | 12.9 | 0.00 | 1.73 | 0.64 | 59 | 1012.4 |
| 20260506230140 | 12 | 292 | 4.8 | 9.7 | 0.00 | 1.75 | 0.64 | 61 | 1012.4 |
| 20260506225640 | 12 | 309 | 4.8 | 11.3 | 0.00 | 1.80 | 0.64 | 62 | 1012.6 |
| 20260506225134 | 12 | 309 | 4.8 | 11.3 | 0.00 | 1.85 | 0.64 | 58 | 1012.7 |
| 20260506224632 | 12 | 342 | 4.8 | 11.3 | 0.00 | 1.91 | 0.64 | 60 | 1012.7 |
| 20260506224135 | 12 | 300 | 4.8 | 11.3 | 0.00 | 1.93 | 0.64 | 62 | 1012.6 |
| 20260506223637 | 12 | 315 | 3.2 | 11.3 | 0.00 | 1.96 | 0.64 | 63 | 1012.7 |
| 20260506223133 | 12 | 302 | 3.2 | 9.7 | 0.00 | 1.96 | 0.64 | 59 | 1012.7 |
| 20260506222636 | 12 | 303 | 3.2 | 9.7 | 0.00 | 1.98 | 0.64 | 62 | 1012.7 |
| 20260506222129 | 12 | 304 | 4.8 | 9.7 | 0.00 | 2.01 | 0.64 | 64 | 1012.8 |
| 20260506221629 | 12 | 277 | 4.8 | 11.3 | 0.00 | 2.01 | 0.64 | 62 | 1012.8 |
| 20260506221127 | 12 | 317 | 3.2 | 11.3 | 0.00 | 2.01 | 0.64 | 61 | 1012.7 |
| 20260506220627 | 12 | 340 | 3.2 | 11.3 | 0.00 | 2.01 | 0.64 | 59 | 1012.8 |
| 20260506220127 | 12 | 327 | 6.4 | 14.5 | 0.00 | 2.06 | 0.64 | 58 | 1012.8 |
| 20260506215627 | 12 | 294 | 4.8 | 14.5 | 0.00 | 2.06 | 0.64 | 59 | 1012.7 |
| 20260506215123 | 12 | 245 | 3.2 | 8.0 | 0.00 | 2.06 | 0.64 | 67 | 1012.6 |
| 20260506214623 | 12 | 309 | 3.2 | 9.7 | 0.00 | 2.06 | 0.64 | 61 | 1012.5 |
| 20260506214356 | 12 | 297 | 4.8 | 11.3 | 0.00 | 2.06 | 0.64 | 59 | 1012.4 |
| 20260506213624 | 12 | 341 | 4.8 | 11.3 | 0.00 | 2.06 | 0.64 | 59 | 1012.4 |
| 20260506213121 | 12 | 312 | 3.2 | 9.7 | 0.00 | 2.06 | 0.64 | 59 | 1012.4 |
| 20260506212854 | 12 | 294 | 3.2 | 11.3 | 0.00 | 2.06 | 0.64 | 64 | 1012.3 |
| 20260506212120 | 12 | 310 | 6.4 | 16.1 | 0.00 | 2.06 | 0.64 | 62 | 1012.3 |
| 20260506211617 | 12 | 286 | 6.4 | 16.1 | 0.00 | 2.06 | 0.64 | 57 | 1012.2 |
| 20260506211115 | 12 | 255 | 6.4 | 14.5 | 0.00 | 2.06 | 0.64 | 59 | 1012.2 |
| 20260506210615 | 12 | 298 | 4.8 | 14.5 | 0.00 | 2.08 | 0.64 | 58 | 1012.2 |
| 20260506210115 | 12 | 313 | 6.4 | 14.5 | 0.00 | 2.08 | 0.64 | 57 | 1012.1 |
| 20260506205617 | 12 | 316 | 6.4 | 16.1 | 0.00 | 2.08 | 0.64 | 56 | 1012.1 |
| 20260506205111 | 12 | 324 | 6.4 | 16.1 | 0.00 | 2.11 | 0.64 | 58 | 1012.2 |
| 20260506204611 | 12 | 327 | 4.8 | 16.1 | 0.00 | 2.11 | 0.64 | 57 | 1012.2 |
| 20260506204113 | 12 | 355 | 6.4 | 16.1 | 0.00 | 2.11 | 0.64 | 54 | 1012.2 |
| 20260506203611 | 12 | 24 | 4.8 | 12.9 | 0.00 | 2.16 | 0.64 | 53 | 1012.3 |
| 20260506203112 | 12 | 321 | 4.8 | 12.9 | 0.00 | 2.18 | 0.64 | 59 | 1012.3 |
| 20260506202612 | 12 | 316 | 6.4 | 12.9 | 0.00 | 2.21 | 0.64 | 58 | 1012.2 |
| 20260506202343 | 12 | 338 | 6.4 | 12.9 | 0.00 | 2.24 | 0.64 | 56 | 1012.2 |
| 20260506201610 | 12 | 334 | 4.8 | 12.9 | 0.00 | 2.26 | 0.64 | 57 | 1012.1 |
| 20260506201111 | 12 | 5 | 3.2 | 14.5 | 0.00 | 2.29 | 0.64 | 60 | 1012.1 |
| 20260506200609 | 12 | 294 | 4.8 | 14.5 | 0.00 | 2.34 | 0.64 | 62 | 1012.1 |
| 20260506200108 | 12 | 295 | 4.8 | 9.7 | 0.00 | 2.36 | 0.64 | 65 | 1011.9 |
| 20260506195606 | 12 | 296 | 4.8 | 14.5 | 0.00 | 2.39 | 0.64 | 64 | 1011.9 |
| 20260506195104 | 12 | 355 | 4.8 | 14.5 | 0.00 | 2.39 | 0.64 | 58 | 1011.8 |
| 20260506194833 | 12 | 263 | 4.8 | 11.3 | 0.00 | 2.39 | 0.64 | 66 | 1011.9 |
| 20260506194058 | 12 | 301 | 4.8 | 14.5 | 0.00 | 2.39 | 0.64 | 62 | 1011.9 |
| 20260506193556 | 12 | 329 | 6.4 | 17.7 | 0.00 | 2.39 | 0.64 | 62 | 1011.9 |
| 20260506193055 | 12 | 300 | 4.8 | 17.7 | 0.00 | 2.39 | 0.64 | 62 | 1012.0 |
| 20260506192555 | 12 | 306 | 4.8 | 14.5 | 0.00 | 2.39 | 0.64 | 60 | 1012.1 |
| 20260506192058 | 12 | 306 | 4.8 | 14.5 | 0.00 | 2.39 | 0.64 | 61 | 1012.0 |
| 20260506191556 | 12 | 323 | 4.8 | 12.9 | 0.00 | 2.39 | 0.64 | 64 | 1012.0 |
| 20260506191054 | 12 | 292 | 6.4 | 19.3 | 0.00 | 2.39 | 0.64 | 63 | 1012.0 |
| 20260506190555 | 12 | 317 | 6.4 | 19.3 | 0.00 | 2.39 | 0.64 | 64 | 1012.1 |
| 20260506190057 | 12 | 239 | 4.8 | 12.9 | 0.00 | 2.39 | 0.64 | 64 | 1012.0 |
| 20260506185550 | 12 | 305 | 4.8 | 12.9 | 0.00 | 2.39 | 0.64 | 62 | 1012.0 |
| 20260506185328 | 13 | 322 | 6.4 | 17.7 | 0.00 | 2.39 | 0.64 | 59 | 1011.9 |
| 20260506185052 | 13 | 23 | 6.4 | 17.7 | 0.00 | 2.39 | 0.64 | 58 | 1012.0 |
| 20260506184052 | 13 | 338 | 4.8 | 12.9 | 0.00 | 2.39 | 0.64 | 61 | 1011.7 |
| 20260506183549 | 13 | 298 | 4.8 | 12.9 | 0.00 | 2.39 | 0.64 | 63 | 1011.4 |
| 20260506183052 | 13 | 328 | 4.8 | 11.3 | 0.00 | 2.39 | 0.64 | 65 | 1011.6 |
| 20260506182547 | 13 | 294 | 4.8 | 11.3 | 0.00 | 2.39 | 0.64 | 63 | 1011.8 |
| 20260506182047 | 13 | 316 | 6.4 | 16.1 | 0.00 | 2.39 | 0.64 | 62 | 1011.9 |
| 20260506181548 | 13 | 297 | 8.0 | 16.1 | 0.00 | 2.39 | 0.64 | 62 | 1011.8 |
| 20260506181046 | 13 | 300 | 6.4 | 16.1 | 0.00 | 2.39 | 0.64 | 61 | 1011.9 |
| 20260506180545 | 13 | 286 | 6.4 | 16.1 | 0.00 | 2.39 | 0.64 | 59 | 1011.9 |
| 20260506180045 | 13 | 340 | 6.4 | 16.1 | 0.00 | 2.39 | 0.64 | 60 | 1012.0 |
| 20260506175543 | 13 | 331 | 6.4 | 16.1 | 0.00 | 2.39 | 0.64 | 57 | 1012.1 |
| 20260506175041 | 13 | 350 | 6.4 | 14.5 | 0.00 | 2.39 | 0.64 | 58 | 1012.0 |
| 20260506174812 | 13 | 333 | 6.4 | 14.5 | 0.00 | 2.39 | 0.64 | 59 | 1012.1 |
| 20260506174041 | 13 | 336 | 6.4 | 16.1 | 0.00 | 2.39 | 0.64 | 62 | 1012.0 |
| 20260506173542 | 13 | 296 | 6.4 | 16.1 | 0.00 | 2.39 | 0.64 | 63 | 1012.0 |
| 20260506173041 | 13 | 17 | 6.4 | 14.5 | 0.00 | 2.39 | 0.64 | 61 | 1012.0 |
| 20260506172540 | 13 | 306 | 6.4 | 17.7 | 0.00 | 2.39 | 0.64 | 67 | 1012.1 |
| 20260506172042 | 13 | 343 | 8.0 | 17.7 | 0.00 | 2.39 | 0.64 | 62 | 1012.1 |
| 20260506171538 | 13 | 281 | 8.0 | 17.7 | 0.00 | 2.39 | 0.64 | 65 | 1012.0 |
| 20260506171039 | 13 | 306 | 6.4 | 17.7 | 0.00 | 2.39 | 0.64 | 62 | 1012.0 |
| 20260506170541 | 13 | 315 | 4.8 | 14.5 | 0.00 | 2.39 | 0.64 | 62 | 1012.0 |
| 20260506170309 | 13 | 288 | 4.8 | 14.5 | 0.00 | 2.39 | 0.64 | 67 | 1011.9 |
| 20260506165809 | 13 | 271 | 4.8 | 16.1 | 0.00 | 2.39 | 0.64 | 68 | 1011.9 |
| 20260506165040 | 13 | 319 | 6.4 | 17.7 | 0.00 | 2.39 | 0.64 | 65 | 1011.8 |
| 20260506164535 | 13 | 281 | 4.8 | 17.7 | 0.00 | 2.39 | 0.64 | 68 | 1011.8 |
| 20260506164035 | 13 | 355 | 4.8 | 14.5 | 0.00 | 2.39 | 0.64 | 72 | 1011.8 |
| 20260506163536 | 13 | 263 | 4.8 | 12.9 | 0.00 | 2.39 | 0.64 | 70 | 1012.0 |
| 20260506163034 | 12 | 308 | 4.8 | 16.1 | 0.00 | 2.39 | 0.64 | 68 | 1012.2 |
| 20260506162535 | 12 | 306 | 6.4 | 16.1 | 0.00 | 2.39 | 0.64 | 67 | 1012.2 |
| 20260506162035 | 12 | 303 | 4.8 | 14.5 | 0.00 | 2.39 | 0.64 | 69 | 1012.2 |
| 20260506161531 | 12 | 293 | 3.2 | 12.9 | 0.00 | 2.39 | 0.64 | 70 | 1011.9 |
| 20260506161033 | 12 | 348 | 4.8 | 12.9 | 0.00 | 2.39 | 0.64 | 67 | 1011.8 |
| 20260506160530 | 12 | 304 | 6.4 | 14.5 | 0.00 | 2.39 | 0.64 | 69 | 1011.9 |
| 20260506160031 | 12 | 294 | 6.4 | 14.5 | 0.00 | 2.39 | 0.64 | 70 | 1011.8 |
| 20260506155530 | 12 | 309 | 6.4 | 14.5 | 0.00 | 2.39 | 0.64 | 71 | 1012.0 |
| 20260506155306 | 11 | 321 | 6.4 | 14.5 | 0.00 | 2.39 | 0.64 | 71 | 1012.1 |
| 20260506154530 | 11 | 304 | 4.8 | 12.9 | 0.00 | 2.39 | 0.64 | 73 | 1012.0 |
| 20260506154031 | 11 | 348 | 4.8 | 12.9 | 0.00 | 2.39 | 0.64 | 79 | 1011.9 |
| 20260506153531 | 11 | 296 | 4.8 | 12.9 | 0.00 | 2.39 | 0.64 | 71 | 1011.7 |
| 20260506153030 | 11 | 331 | 4.8 | 14.5 | 0.00 | 2.39 | 0.64 | 74 | 1011.6 |
| 20260506152528 | 11 | 309 | 6.4 | 14.5 | 0.00 | 2.39 | 0.64 | 71 | 1011.3 |
| 20260506152028 | 11 | 317 | 6.4 | 14.5 | 0.00 | 2.39 | 0.64 | 74 | 1011.3 |
| 20260506151528 | 11 | 328 | 6.4 | 12.9 | 0.00 | 2.39 | 0.64 | 77 | 1011.3 |
| 20260506151029 | 11 | 322 | 6.4 | 12.9 | 0.00 | 2.39 | 0.64 | 76 | 1011.2 |
| 20260506150526 | 11 | 28 | 6.4 | 12.9 | 0.00 | 2.39 | 0.64 | 75 | 1010.9 |
| 20260506150025 | 10 | 340 | 6.4 | 12.9 | 0.00 | 2.39 | 0.64 | 74 | 1010.9 |
| 20260506145525 | 10 | 302 | 4.8 | 14.5 | 0.00 | 2.39 | 0.64 | 75 | 1011.1 |
| 20260506145022 | 10 | 302 | 6.4 | 14.5 | 0.00 | 2.39 | 0.64 | 77 | 1011.0 |
| 20260506144522 | 10 | 321 | 4.8 | 14.5 | 0.00 | 2.39 | 0.64 | 77 | 1010.9 |
| 20260506144022 | 10 | 318 | 3.2 | 9.7 | 0.00 | 2.39 | 0.64 | 80 | 1010.8 |
| 20260506143522 | 10 | 69 | 3.2 | 8.0 | 0.00 | 2.39 | 0.64 | 81 | 1011.0 |
| 20260506143020 | 9 | 323 | 3.2 | 11.3 | 0.00 | 2.39 | 0.64 | 82 | 1011.0 |
| 20260506142520 | 9 | 301 | 4.8 | 11.3 | 0.00 | 2.39 | 0.64 | 81 | 1011.0 |
| 20260506142021 | 8 | 327 | 3.2 | 11.3 | 0.00 | 2.39 | 0.64 | 81 | 1011.0 |
| 20260506141521 | 8 | 254 | 3.2 | 9.7 | 0.00 | 2.39 | 0.64 | 83 | 1011.0 |
| 20260506141017 | 8 | 322 | 3.2 | 9.7 | 0.00 | 2.39 | 0.64 | 83 | 1011.0 |
| 20260506140746 | 8 | 338 | 3.2 | 9.7 | 0.00 | 2.39 | 0.64 | 83 | 1011.0 |
| 20260506140247 | 8 | 343 | 3.2 | 9.7 | 0.00 | 2.39 | 0.64 | 83 | 1011.0 |
| 20260506135514 | 8 | 309 | 3.2 | 9.7 | 0.00 | 2.39 | 0.64 | 85 | 1010.9 |
| 20260506135014 | 8 | 341 | 3.2 | 8.0 | 0.00 | 2.39 | 0.64 | 86 | 1010.9 |
| 20260506134511 | 8 | 339 | 3.2 | 9.7 | 0.00 | 2.39 | 0.64 | 85 | 1010.7 |
| 20260506134240 | 8 | 346 | 4.8 | 11.3 | 0.00 | 2.39 | 0.64 | 86 | 1010.4 |
| 20260506134122 | 7 | 325 | 4.8 | 11.3 | 0.00 | 2.39 | 0.64 | 86 | 1010.5 |
| 20260506133006 | 7 | 343 | 3.2 | 8.0 | 0.00 | 2.39 | 0.64 | 88 | 1010.4 |
| 20260506132506 | 7 | 10 | 3.2 | 11.3 | 0.00 | 2.39 | 0.64 | 88 | 1010.4 |
| 20260506132006 | 7 | 296 | 3.2 | 11.3 | 0.00 | 2.39 | 0.64 | 88 | 1010.4 |
| 20260506131508 | 7 | 308 | 3.2 | 8.0 | 0.00 | 2.39 | 0.64 | 89 | 1010.5 |
| 20260506131004 | 7 | 304 | 1.6 | 8.0 | 0.00 | 2.39 | 0.64 | 89 | 1010.5 |
| 20260506130737 | 7 | 323 | 1.6 | 6.4 | 0.00 | 2.39 | 0.64 | 89 | 1010.3 |
| 20260506130007 | 7 | 323 | 3.2 | 9.7 | 0.00 | 2.39 | 0.64 | 89 | 1010.4 |
| 20260506125504 | 7 | 331 | 3.2 | 11.3 | 0.00 | 2.39 | 0.64 | 90 | 1010.3 |
| 20260506125004 | 7 | 328 | 3.2 | 11.3 | 0.00 | 2.39 | 0.64 | 90 | 1010.1 |
| 20260506124502 | 7 | 348 | 3.2 | 9.7 | 0.00 | 2.39 | 0.64 | 90 | 1010.2 |
| 20260506124235 | 7 | 322 | 4.8 | 9.7 | 0.00 | 2.39 | 0.64 | 90 | 1010.1 |
| 20260506123500 | 7 | 327 | 3.2 | 8.0 | 0.00 | 2.39 | 0.64 | 91 | 1010.2 |
| 20260506122958 | 6 | 341 | 3.2 | 9.7 | 0.00 | 2.39 | 0.64 | 91 | 1010.2 |
| 20260506122458 | 6 | 302 | 3.2 | 11.3 | 0.00 | 2.39 | 0.64 | 91 | 1010.1 |
| 20260506121956 | 6 | 355 | 3.2 | 11.3 | 0.00 | 2.39 | 0.64 | 91 | 1010.0 |
| 20260506121728 | 6 | 313 | 3.2 | 11.3 | 0.00 | 2.39 | 0.64 | 91 | 1009.8 |
| 20260506121228 | 6 | 355 | 3.2 | 11.3 | 0.00 | 2.39 | 0.64 | 91 | 1009.7 |
| 20260506120725 | 6 | 340 | 3.2 | 8.0 | 0.00 | 2.39 | 0.64 | 91 | 1009.4 |
| 20260506115954 | 6 | 318 | 3.2 | 12.9 | 0.00 | 2.39 | 0.64 | 91 | 1009.3 |
| 20260506115455 | 6 | 5 | 3.2 | 12.9 | 0.00 | 2.39 | 0.64 | 92 | 1009.0 |
| 20260506114952 | 6 | 355 | 3.2 | 9.7 | 0.00 | 2.39 | 0.64 | 92 | 1009.0 |
| 20260506114449 | 6 | 321 | 3.2 | 9.7 | 0.00 | 2.39 | 0.64 | 92 | 1009.0 |
| 20260506113952 | 6 | 0 | 3.2 | 8.0 | 0.00 | 2.39 | 0.64 | 92 | 1009.0 |
| 20260506113448 | 6 | 315 | 3.2 | 8.0 | 0.00 | 2.39 | 0.64 | 92 | 1009.0 |
| 20260506112947 | 6 | 343 | 3.2 | 8.0 | 0.00 | 2.39 | 0.64 | 92 | 1009.0 |
| 20260506112718 | 6 | 313 | 1.6 | 6.4 | 0.00 | 2.39 | 0.64 | 92 | 1009.1 |
| 20260506111949 | 6 | 315 | 3.2 | 11.3 | 0.00 | 2.39 | 0.64 | 92 | 1009.2 |
| 20260506111445 | 6 | 316 | 3.2 | 11.3 | 0.00 | 2.39 | 0.64 | 92 | 1008.8 |
| 20260506110945 | 6 | 327 | 3.2 | 12.9 | 0.00 | 2.39 | 0.64 | 92 | 1008.5 |
| 20260506110710 | 6 | 339 | 3.2 | 12.9 | 0.00 | 2.39 | 0.64 | 92 | 1008.4 |
| 20260506105936 | 6 | 26 | 3.2 | 9.7 | 0.00 | 2.39 | 0.64 | 92 | 1008.5 |
| 20260506105436 | 6 | 42 | 4.8 | 14.5 | 0.00 | 2.41 | 0.64 | 92 | 1008.2 |
| 20260506105207 | 6 | 321 | 4.8 | 14.5 | 0.00 | 2.41 | 0.64 | 92 | 1008.0 |
| 20260506104437 | 6 | 319 | 4.8 | 12.9 | 0.00 | 2.41 | 0.64 | 92 | 1008.0 |
| 20260506103934 | 6 | 9 | 4.8 | 12.9 | 0.00 | 2.41 | 0.64 | 92 | 1007.6 |
| 20260506103435 | 6 | 19 | 4.8 | 11.3 | 0.00 | 2.41 | 0.64 | 92 | 1007.7 |
| 20260506102926 | 6 | 0 | 4.8 | 11.3 | 0.00 | 2.41 | 0.64 | 92 | 1008.1 |
| 20260506102426 | 6 | 355 | 4.8 | 11.3 | 0.00 | 2.41 | 0.64 | 92 | 1008.6 |
| 20260506101927 | 6 | 343 | 3.2 | 11.3 | 0.00 | 2.41 | 0.64 | 92 | 1008.5 |
| 20260506101426 | 6 | 355 | 3.2 | 9.7 | 0.00 | 2.41 | 0.64 | 92 | 1007.9 |
| 20260506100924 | 6 | 355 | 4.8 | 9.7 | 0.00 | 2.44 | 0.64 | 92 | 1007.8 |
| 20260506100424 | 6 | 340 | 4.8 | 9.7 | 0.00 | 2.44 | 0.64 | 92 | 1007.9 |
| 20260506095921 | 6 | 355 | 3.2 | 8.0 | 0.00 | 2.44 | 0.64 | 92 | 1007.7 |
| 20260506095419 | 6 | 18 | 3.2 | 14.5 | 0.00 | 2.46 | 0.64 | 92 | 1007.8 |
| 20260506094921 | 6 | 321 | 4.8 | 14.5 | 0.00 | 2.46 | 0.64 | 92 | 1007.6 |
| 20260506094420 | 6 | 348 | 3.2 | 11.3 | 0.00 | 2.46 | 0.64 | 92 | 1007.5 |
| 20260506094151 | 6 | 18 | 3.2 | 9.7 | 0.00 | 2.46 | 0.64 | 92 | 1007.1 |
| 20260506093419 | 6 | 14 | 3.2 | 9.7 | 0.03 | 2.46 | 0.64 | 92 | 1006.9 |
| 20260506092915 | 6 | 11 | 3.2 | 6.4 | 0.03 | 2.49 | 0.64 | 92 | 1006.9 |
| 20260506092414 | 6 | 12 | 3.2 | 8.0 | 0.03 | 2.51 | 0.64 | 92 | 1007.0 |
| 20260506091916 | 6 | 5 | 3.2 | 9.7 | 0.03 | 2.54 | 0.64 | 92 | 1007.1 |
| 20260506091414 | 6 | 18 | 3.2 | 9.7 | 0.03 | 2.57 | 0.64 | 92 | 1007.1 |
| 20260506090912 | 6 | 38 | 3.2 | 6.4 | 0.05 | 2.59 | 0.64 | 92 | 1007.1 |
| 20260506090413 | 6 | 39 | 3.2 | 9.7 | 0.05 | 2.59 | 0.64 | 92 | 1007.2 |
| 20260506085906 | 6 | 43 | 3.2 | 11.3 | 0.08 | 2.59 | 0.64 | 92 | 1006.9 |
| 20260506085406 | 6 | 53 | 3.2 | 11.3 | 0.08 | 2.59 | 0.64 | 93 | 1006.9 |
| 20260506085138 | 6 | 39 | 3.2 | 11.3 | 0.08 | 2.59 | 0.64 | 93 | 1006.8 |
| 20260506084404 | 6 | 22 | 3.2 | 9.7 | 0.08 | 2.59 | 0.64 | 93 | 1007.0 |
| 20260506083904 | 6 | 330 | 3.2 | 11.3 | 0.08 | 2.57 | 0.64 | 93 | 1007.0 |
| 20260506083404 | 6 | 348 | 4.8 | 11.3 | 0.10 | 2.57 | 0.61 | 93 | 1007.1 |
| 20260506082903 | 6 | 347 | 4.8 | 11.3 | 0.10 | 2.57 | 0.61 | 93 | 1007.1 |
| 20260506082400 | 6 | 11 | 4.8 | 11.3 | 0.10 | 2.57 | 0.61 | 93 | 1007.0 |
| 20260506081901 | 6 | 0 | 4.8 | 11.3 | 0.10 | 2.57 | 0.61 | 93 | 1007.1 |
| 20260506081400 | 6 | 5 | 6.4 | 12.9 | 0.10 | 2.57 | 0.61 | 93 | 1007.2 |
| 20260506080900 | 6 | 14 | 4.8 | 14.5 | 0.08 | 2.54 | 0.58 | 93 | 1007.2 |
| 20260506080359 | 6 | 5 | 4.8 | 17.7 | 0.08 | 2.54 | 0.58 | 93 | 1007.3 |
| 20260506072859 | 7 | 10 | 4.8 | 12.9 | 0.03 | 2.46 | 0.51 | 93 | 1007.1 |
| 20260506072358 | 7 | 17 | 4.8 | 19.3 | 0.05 | 2.46 | 0.51 | 93 | 1006.9 |
| 20260506071900 | 7 | 11 | 6.4 | 19.3 | 0.08 | 2.46 | 0.51 | 93 | 1006.8 |
| 20260506071359 | 7 | 355 | 6.4 | 17.7 | 0.08 | 2.46 | 0.51 | 93 | 1006.7 |
| 20260506070858 | 7 | 13 | 4.8 | 14.5 | 0.10 | 2.46 | 0.51 | 93 | 1006.6 |
| 20260506070358 | 7 | 37 | 4.8 | 14.5 | 0.15 | 2.46 | 0.51 | 93 | 1006.7 |
| 20260506062351 | 7 | 14 | 4.8 | 11.3 | 0.25 | 2.41 | 0.46 | 93 | 1006.5 |
| 20260506061852 | 7 | 28 | 3.2 | 8.0 | 0.25 | 2.39 | 0.46 | 93 | 1006.7 |
| 20260506061354 | 7 | 13 | 4.8 | 14.5 | 0.30 | 2.39 | 0.43 | 93 | 1006.9 |
| 20260506060851 | 7 | 350 | 4.8 | 14.5 | 0.30 | 2.36 | 0.41 | 93 | 1006.9 |
| 20260506060351 | 7 | 337 | 4.8 | 12.9 | 0.25 | 2.31 | 0.36 | 92 | 1006.9 |
| 20260506060126 | 7 | 334 | 4.8 | 12.9 | 0.25 | 2.31 | 0.36 | 93 | 1006.9 |
| 20260506051345 | 8 | 349 | 4.8 | 14.5 | 0.13 | 2.08 | 0.15 | 92 | 1007.3 |
| 20260506050844 | 8 | 44 | 4.8 | 12.9 | 0.10 | 2.06 | 0.13 | 93 | 1007.3 |
| 20260506050344 | 8 | 61 | 6.4 | 12.9 | 0.10 | 2.06 | 0.10 | 93 | 1007.0 |
| 20260506050118 | 8 | 342 | 6.4 | 20.9 | 0.10 | 2.06 | 0.10 | 92 | 1006.8 |
| 20260506044840 | 8 | 50 | 8.0 | 17.7 | 0.08 | 2.03 | 0.08 | 93 | 1006.6 |
| 20260506044341 | 8 | 5 | 6.4 | 16.1 | 0.08 | 2.03 | 0.08 | 93 | 1006.8 |
| 20260506043840 | 8 | 355 | 6.4 | 16.1 | 0.08 | 2.03 | 0.08 | 93 | 1006.8 |
| 20260506043611 | 8 | 22 | 4.8 | 16.1 | 0.08 | 2.03 | 0.08 | 92 | 1006.9 |
| 20260506042841 | 8 | 28 | 3.2 | 11.3 | 0.08 | 2.03 | 0.08 | 93 | 1007.0 |
| 20260506042337 | 8 | 13 | 4.8 | 12.9 | 0.05 | 2.01 | 0.05 | 93 | 1007.1 |
| 20260506041835 | 8 | 310 | 4.8 | 12.9 | 0.03 | 1.98 | 0.03 | 93 | 1007.1 |
| 20260506041333 | 9 | 42 | 4.8 | 11.3 | 0.03 | 1.96 | 0.00 | 93 | 1006.9 |
| 20260506040831 | 9 | 39 | 3.2 | 12.9 | 0.03 | 1.96 | 0.00 | 93 | 1006.7 |
| 20260506040326 | 9 | 59 | 4.8 | 12.9 | 0.03 | 1.96 | 0.00 | 93 | 1006.6 |
| 20260506035825 | 9 | 15 | 4.8 | 12.9 | 0.03 | 1.96 | 1.96 | 93 | 1006.5 |
| 20260506035323 | 9 | 84 | 4.8 | 12.9 | 0.05 | 1.96 | 1.96 | 93 | 1006.6 |
| 20260506034823 | 9 | 52 | 4.8 | 16.1 | 0.08 | 1.96 | 1.96 | 93 | 1006.5 |
| 20260506034324 | 9 | 43 | 4.8 | 16.1 | 0.08 | 1.96 | 1.96 | 93 | 1006.5 |
| 20260506033827 | 9 | 65 | 4.8 | 11.3 | 0.13 | 1.96 | 1.96 | 93 | 1006.5 |
| 20260506033822 | 9 | 55 | 4.8 | 14.5 | 0.10 | 1.96 | 1.96 | 93 | 1006.6 |
| 20260506032819 | 9 | 46 | 4.8 | 19.3 | 0.18 | 1.96 | 1.96 | 93 | 1006.6 |
| 20260506032317 | 9 | 9 | 8.0 | 19.3 | 0.20 | 1.96 | 1.96 | 93 | 1006.5 |
| 20260506031818 | 9 | 16 | 6.4 | 19.3 | 0.25 | 1.96 | 1.96 | 93 | 1006.4 |
| 20260506031317 | 9 | 58 | 6.4 | 19.3 | 0.23 | 1.93 | 1.93 | 93 | 1006.7 |
| 20260506030818 | 9 | 66 | 8.0 | 19.3 | 0.25 | 1.93 | 1.93 | 93 | 1006.7 |
| 20260506030311 | 9 | 40 | 8.0 | 19.3 | 0.25 | 1.93 | 1.93 | 93 | 1006.7 |
| 20260506025809 | 9 | 55 | 6.4 | 16.1 | 0.25 | 1.93 | 1.93 | 92 | 1006.8 |
| 20260506025307 | 9 | 31 | 4.8 | 17.7 | 0.23 | 1.91 | 1.91 | 92 | 1007.0 |
| 20260506024810 | 9 | 32 | 4.8 | 17.7 | 0.23 | 1.88 | 1.88 | 92 | 1007.2 |
| 20260506024539 | 9 | 41 | 4.8 | 12.9 | 0.23 | 1.88 | 1.88 | 92 | 1007.4 |
| 20260506023808 | 9 | 17 | 4.8 | 12.9 | 0.23 | 1.85 | 1.85 | 92 | 1007.4 |